Flag for Canada Weather past 2 weeks in Vancouver, British Columbia, Canada

Now
50 °F

Overcast.


Feels Like: 47 °F
Forecast: 46 / 56 °F
Wind: 8 mph from East

Location: Vancouver International Air-Port


UV Index: 0 (Low)

Visibility: 15 mi


Pressure: 30.16 "Hg

Humidity: 71%

Dew point: 41 °F

Location of VancouverLocation

Historic Weather in Vancouver

°F

Vancouver temperature yesterday

Maximum temperature yesterday: 54 °F (at 12:00 PM)
Minimum temperature yesterday: 46 °F (at 2:00 AM)
Average temperature yesterday: 49 °F

Past Weeks' High & Low Weather Summary

 TemperatureHumidityPressure
High61 °F (Apr 14, 3:00 PM)100% (Apr 5, 11:00 PM)30.35 "Hg (Apr 5, 11:00 PM)
Low37 °F (Apr 14, 5:00 AM)41% (Apr 13, 10:00 PM)29.67 "Hg (Apr 17, 7:00 PM)
Average50 °F77%30.10 "Hg
* Reported Apr 5 9:00 PM — Apr 20 9:00 PM, Vancouver, Weather by CustomWeather, © 2014

Note: Actual official high and low records may vary slightly from our data, if they occured in-between our weather recording intervals... More about our weather records

Advertising

Historic Weather Conditions — Data for Previous 24 hours

 ConditionsComfort  
Time TempWeatherWind HumidityBarometerVisibility
9:00 PM
Apr 20
50 °FMore clouds than sun.6 mph71%30.17 "Hg15 mi
8:00 PM52 °FOvercast.7 mph67%30.18 "Hg15 mi
7:00 PM52 °FMore clouds than sun.9 mph67%30.19 "Hg15 mi
6:00 PM54 °FPartly sunny.7 mph58%30.20 "Hg15 mi
5:00 PM54 °FCloudy.10 mph54%30.23 "Hg15 mi
4:00 PM55 °FMostly cloudy.10 mph55%30.23 "Hg15 mi
3:00 PM55 °FMore clouds than sun.10 mph59%30.23 "Hg15 mi
2:00 PM54 °FMostly cloudy.12 mph63%30.26 "Hg12 mi
1:00 PM54 °FCloudy.16 mph67%30.27 "Hg12 mi
12:00 PM54 °FCloudy.14 mph72%30.28 "Hg12 mi
11:00 AM52 °FCloudy.20 mph72%30.29 "Hg12 mi
10:00 AM50 °FCloudy.9 mph82%30.29 "Hg10 mi
9:00 AM48 °FPartly sunny.10 mph87%30.28 "Hg12 mi
8:00 AM46 °FScattered showers. Broken clouds.7 mph87%30.27 "Hg15 mi
7:00 AM45 °FPartly cloudy.5 mph81%30.26 "Hg15 mi
6:00 AM45 °FPartly cloudy.3 mph81%30.25 "Hg15 mi
5:00 AM45 °FPassing clouds.6 mph81%30.24 "Hg15 mi
4:00 AM46 °FPassing clouds.10 mph82%30.22 "Hg12 mi
3:00 AM46 °FPartly cloudy.10 mph82%30.19 "Hg15 mi
2:00 AM46 °FPartly cloudy.13 mph82%30.16 "Hg12 mi
1:00 AM48 °FPassing clouds.15 mph76%30.14 "Hg12 mi
12:00 AM48 °FPartly cloudy.14 mph76%30.10 "Hg12 mi
11:00 PM
Apr 19
48 °FPassing clouds.15 mph76%30.06 "Hg12 mi
10:00 PM50 °FPartly cloudy.16 mph76%30.02 "Hg12 mi
Weather by CustomWeather, © 2014

See weather overview